KUIPER-00253

导读

KUIPER-00253(NORAD编号68584)是亚马逊Amazon Leo(原Project Kuiper)低轨卫星互联网星座的一颗卫星。该星座计划一期部署3236颗卫星,旨在为全球网络覆盖不足地区提供高速低延迟互联网服务。 KUIPER-00253属于2025年9月ULA第五次发射的27颗卫星之一,发射后先部署于465公里轨道,随后将爬升进入600公里左右的预定工作轨道,属于星座组网过程中的一颗量产通信卫星,助力亚马逊完成FCC要求2026年7月前部署一半卫星的进度目标。

基本信息
目录编号:
68584
目录名称:
KUIPER-00253
国际标识:
2026-072M
轨道中心:
EARTH
卫星名称:
KUIPER-00253
卫星全名:
KUIPER-00253
卫星状态:
在轨 (已飞行164 天)
发射日期:
2026-04-04 UTC
国别 :
美国 (US)
星等 :
--
该卫星已列入 空间交会检测服务 Space Conjunction Data Service (SCDS) ,当前飞行风险评估等级: 无高风险
轨道信息
数据来源 国际轨道数据 AOE轨道数据
星历时间 2026-09-15T18:11:00+0800
13小时前
查看轨道信息
2026-09-14T23:00:00+0800
1天前
查看轨道信息
半长轴 7007.676km 7007.685km
偏心率 0.000098 0.0001126
轨道倾角 51.904° 51.902°
近地点辐角 96.357° 75.722°
升交点赤经 144.159° 147.695°
平近点角 263.750° 343.304°
近地点 628.852km 628.758km
远地点 630.226km 630.338km
周期 97.302分钟 97.302分钟
每日圈数 14.79932 14.799291
详细信息
使用方式:
暂无
2D轨道图
3D轨道图
轨道高度分析图
轨道倾角分析图
轨道综合分析图
查看轨道综合分析图
与全量物体交会距离演化趋势 订阅飞行安全评估服务
与全量物体交会风险概率演化趋势 订阅飞行安全评估服务